星链-32361 (STARLINK-32361)

导读

STARLINK-32361是美国太空探索技术公司(SpaceX)于2024年11月11日发射的星链(Starlink)星座卫星,属于 SpaceX 打造全球低轨卫星互联网星座的组网任务。星链星座通过多批次发射卫星,逐步完善近地轨道卫星布局,为全球提供高速宽带互联网接入服务,尤其支持偏远地区网络覆盖、手机直连卫星通信等业务,STARLINK-32361的入轨进一步扩充了星链星座的卫星规模与服务能力。

基本信息
目录编号:
61933
目录名称:
STARLINK-32361
国际标识:
2024-207X
轨道中心:
EARTH
卫星名称:
星链-32361
卫星全名:
星链-32361 (STARLINK-32361)
卫星状态:
在轨 (已飞行583 天)
发射日期:
2024-11-11 UTC
国别 :
美国 (US)
星等 :
--
轨道信息
数据来源 国际轨道数据
星历时间: 2026-06-17T09:08:54+0800
21小时前
查看轨道信息
半长轴: 6861.081km
偏心率: 0.0000802
轨道倾角: 43.000°
近地点辐角 129.749°
升交点赤经 80.942°
平近点角 230.343°
近地点: 482.393km
远地点: 483.495km
周期: 94.265分钟
每日圈数: 15.276151
详细信息
固有亮度:
5
最大亮度:
2.5
卫星平台:
Starlink V1.0
覆盖范围:
全球
运营商:
太空探索技术公司
运营商所在国:
美国
制造商(研发单位):
太空探索技术公司
制造商所在国:
美国
使用方式:
暂无
卫星简介
Starlink 计划是 SpaceX 推出的全球卫星互联网项目,通过发射低轨道卫星,为全球尤其是偏远地区提供高速、低延迟的互联网服务。自 2019 年起,Starlink 已部署数千颗卫星,旨在缩小全球数字鸿沟,推动互联网普及。该项目还为军事、航空等行业提供通信支持,带来广泛经济效益。
2D轨道图
3D轨道图
轨道高度分析图
轨道倾角分析图
轨道综合分析图
查看轨道综合分析图